Location: Recife
(8.0585°S, 34.8848°W)
Time: 11:15:57
(UTC-03:00)

Vanguard 2 - Pass Details

Date: 16 April 2026
Orbit: 554 x 2894 km, 32.9° (Epoch: 7 May)

Event Time Altitude Azimuth Distance (km) Brightness Sun altitude
Rises 04:00:35 0° 231° (SW) 6,475 - -20.7°
Reaches altitude 10° 04:05:43 10° 224° (SW) 5,205 - -19.4°
Exits shadow 04:05:52 10° 224° (SW) 5,169 11.3 -19.4°
Maximum altitude 04:18:49 41° 159° (SSE) 2,499 10.2 -16.2°
Drops below altitude 10° 04:27:12 10° 91° (E) 3,380 12.2 -14.2°
Sets 04:29:47 0° 83° (E) 4,074 13.3 -13.5°
